OpenBCM V1.13 (Linux)

Packet Radio Mailbox

DB0FHN

[JN59NK Nuernberg]

 Login: GUEST





  
LU1HVK > KEP      23.09.19 08:04l 252 Lines 12372 Bytes #999 (0) @ WW
BID : 32243_LU1HVK
Read: DJ6UX DF7EAV GUEST
Subj: TLE 23 09
Path: DB0FHN<DB0BLO<DB0ERF<IZ3LSV<IR1UAW<I0OJJ<VE2PKT<N3HYM<IV3BVK<IK5FKA<
      LU9HGS<LU1HVK
Sent: 190923/0522Z 32243@LU1HVK.2594.CBA.ARG.SA LinBPQ6.0.18

>From lu1hvk%lu1hvk.2594.cba.arg.sa@i0ojj.ampr.org Mon Sep 23 07:25:51 2019
Received: from i0ojj.ampr.org by i0ojj.ampr.org (JNOS2.0k.3b2) with SMTP
	id AA27369 ; Mon, 23 Sep 2019 07:25:51 +0200
Message-Id: <32243_LU1HVK@ve2pkt.bbs>
>From: lu1hvk@lu1hvk.2594.cba.arg.sa
X-JNOS-User-Port: Telnet   (ve2pkt @ 144.172.216.109)  -> Sending message

                         _    _   _ _ _   ___     ___  __
                        | |  | | | / | | | \ \   / / |/ /
                        | |  | | | | | |_| |\ \ / /| ' /
                        | |__| |_| | |  _  | \ V / | . \
                        |_____\___/|_|_| |_|  \_/  |_|\_\

     BBS/NODO - CORDOBA (LEONES-FF87UH) - LU1HVK-4 NODO - LU1HVK-3 APRS

+----------------------------------------------------------------------------+
OSCAR 7
1  7530U 74089B   19265.85956802 -.00000021  00000-0  15121-3 0  9996
2  7530 101.7555 232.5719 0012127 159.8054 229.1112 12.53639905 52575
OSCAR 11 (UoSAT 2)
1 14781U 84021B   19265.84193361  .00000057  00000-0  13069-4 0  9999
2 14781  97.6069 285.9892 0008745  14.2571 345.8889 14.83107131913015
OSCAR 19 (LUSAT)
1 20442U 90005G   19264.84327496 -.00000007  00000-0  13924-4 0  9992
2 20442  98.6547 206.7116 0010867 225.6228 134.4066 14.32933053550002
EYESAT A
1 22825U 93061C   19265.49401233 -.00000002  00000-0  17291-4 0  9994
2 22825  98.9111 256.3501 0009499  81.0387 279.1869 14.30066745355641
ITAMSAT
1 22826U 93061D   19264.98370394 -.00000006  00000-0  15682-4 0  9997
2 22826  98.9049 255.8072 0009991  72.3109 287.9163 14.30400687355776
RADIO ROSTO
1 23439U 94085A   19263.61664267 -.00000052 +00000-0 -27629-3 0  9994
2 23439 064.8189 324.2384 0145435 094.9901 266.7642 11.27568195018488
JAS 2
1 24278U 96046B   19265.82533782  .00000016  00000-0  53077-4 0  9992
2 24278  98.5521  46.2489 0350169 350.9624   8.5318 13.53093222140809
TECHSAT 1B
1 25397U 98043D   19265.83396059 -.00000009  00000-0  15310-4 0  9990
2 25397  98.6941 204.8371 0002318 103.2908 256.8529 14.23670807101554
ISS (ZARYA)
1 25544U 98067A   19265.87737213  .00000494  00000-0  16655-4 0  9995
2 25544  51.6432 236.7722 0007495  75.2764  11.8138 15.50100869190410
PCSAT
1 26931U 01043C   19265.70247041 -.00000050  00000-0  12600-4 0  9996
2 26931  67.0499 115.9261 0007430 270.7224  89.3025 14.30552887938708
SAUDISAT 1C
1 27607U 02058C   19265.04075635 -.00000058  00000-0  12821-4 0  9992
2 27607  64.5539 118.0780 0076683 238.0363 121.3269 14.75572320901107
CUTE-1
1 27844U 03031E   19265.47505307  .00000038  00000-0  36651-4 0  9992
2 27844  98.6855 272.2602 0010912 111.5821 248.6521 14.22195244841905
CUBESAT XI 4
1 27848U 03031J   19264.57964637  .00000021  00000-0  29516-4 0  9995
2 27848  98.6931 271.8979 0010660 124.4521 235.7665 14.21788190841628
MOZHAYETS 4
1 27939U 03042A   19265.82445758  .00000128  00000-0  31542-4 0  9995
2 27939  98.0545  39.8405 0013908 120.2845 239.9750 14.66803980854631
CUBESAT XI 5
1 28895U 05043F   19265.07835970  .00000113  00000-0  30512-4 0  9996
2 28895  97.9729  44.6138 0017846  53.7721 306.5128 14.63691869741431
CUTE-1.7+APD II
1 32785U 08021C   19265.48984339  .00000149  00000-0  21664-4 0  9994
2 32785  97.5547 260.7087 0011855 310.0894  49.9284 14.88345853617930
DELFI C3
1 32789U 08021G   19265.76157507  .00000934  00000-0  66146-4 0  9994
2 32789  97.4556 312.4906 0013039 150.6691 209.5272 15.07116746621437
SEEDS
1 32791U 08021J   19265.88364741  .00000341  00000-0  39948-4 0  9992
2 32791  97.5311 267.1477 0011786 279.0150  80.9734 14.90871284618449
YUBELEINY
1 32953U 08025A   19265.66179375  .00000020  00000-0  75656-4 0  9999
2 32953  82.4982  85.0770 0018718 281.0873  78.8100 12.43091230514232
PRISM (HITOMI)
1 33493U 09002B   19264.79716448  .00000564  00000-0  54911-4 0  9990
2 33493  98.1199 189.3568 0014098 224.9907 135.0172 14.96730113579371
KKS-1 (KISEKI)
1 33499U 09002H   19265.83847753  .00000073  00000-0  18805-4 0  9993
2 33499  98.3441 107.5878 0007892 259.6798 100.3521 14.75463097573404
SWISSCUBE
1 35932U 09051B   19265.71863524  .00000097  00000-0  33058-4 0  9995
2 35932  98.5974  74.5567 0006782 225.1377 134.9270 14.56310423530755
BEESAT
1 35933U 09051C   19265.44102589  .00000082  00000-0  29479-4 0  9999
2 35933  98.5994  76.0696 0004817 239.4703 120.6018 14.56396238530824
ITUPSAT 1
1 35935U 09051E   19265.76023528  .00000056  00000-0  23975-4 0  9997
2 35935  98.6103  76.6293 0007135 237.5646 122.4861 14.55552614530613
XIWANG-1 (HOPE-1)
1 36122U 09072B   19265.19758964 -.00000035  00000-0  17546-4 0  9990
2 36122 100.0765 263.1003 0007791 121.1401 239.0485 13.16351160469449
TISAT 1
1 36799U 10035E   19265.37299536  .00000367  00000-0  43031-4 0  9991
2 36799  98.1682  60.7714 0013340 128.7444 231.4967 14.91157756499028
JUGNU
1 37839U 11058B   19265.88124828  .00000294  00000-0  14751-4 0  9996
2 37839  19.9609 111.4684 0018921 307.7400 170.5915 14.12658848410878
SRMSAT
1 37841U 11058D   19265.15508806  .00000298  00000-0  18683-4 0  9993
2 37841  19.9712 174.6230 0011975 164.9814 344.7822 14.10639170410189
M-CUBED/EXP-1 PRIME
1 37855U 11061F   19265.43378004  .00000248  00000-0  20565-4 0  9995
2 37855 101.7123 210.1765 0173070 152.8904 208.1477 15.05585640431189
HORYU 2
1 38340U 12025D   19265.11071992  .00000094  00000-0  21770-4 0  9995
2 38340  98.3211 306.5243 0011679 173.9296 186.2056 14.75749678395236
STRAND 1
1 39090U 13009E   19265.09617469  .00000020  00000-0  22273-4 0  9991
2 39090  98.4800 109.4180 0009448  12.7739 347.3684 14.35097378344079
SOMP
1 39134U 13015E   19265.47028141  .00000995  00000-0  54378-4 0  9994
2 39134  64.8624  70.0936 0035725 288.4693  71.2553 15.20325641355150
BEESAT 3
1 39135U 13015F   19264.90402578  .00000436  00000-0  31367-4 0  9995
2 39135  64.8676  91.5789 0033786 298.1627  61.6087 15.17601930354699
BEESAT 2
1 39136U 13015G   19265.83429467  .00000532  00000-0  36651-4 0  9993
2 39136  64.8682  92.6742 0025638 303.1474  56.7192 15.17023528354752
CUBEBUG 1
1 39153U 13018D   19265.52708831  .00000145  00000-0  25808-4 0  9998
2 39153  97.9806   3.1262 0015708 245.9009 114.0560 14.80596132345992
ZACUBE
1 39417U 13066B   19265.02875034  .00000144  00000-0  24312-4 0  9997
2 39417  97.5628 273.1735 0060488  81.6795 279.1271 14.81148848315154
TRITON 1
1 39427U 13066M   19265.77620928  .00000149  00000-0  31926-4 0  9994
2 39427  97.6873 237.2713 0112791 217.3072 142.0263 14.67880038312431
GOMX 1
1 39430U 13066Q   19265.82436065  .00000168  00000-0  39826-4 0  9999
2 39430  97.7554 216.0870 0150500 311.6265  47.2139 14.59286582310625
HUMSAT D
1 39433U 13066T   19265.10142792  .00000087  00000-0  13860-4 0  9994
2 39433  97.5449 308.6650 0030217 345.2222  14.8111 14.92251094317300
CUBEBUG 2
1 39440U 13066AA  19264.87193688  .00000146  00000-0  27072-4 0  9991
2 39440  97.6080 257.7160 0081256 134.9814 225.8021 14.75886212314015
FUNCUBE 1
1 39444U 13066AE  19265.04400872  .00000182  00000-0  28508-4 0  9996
2 39444  97.5602 275.2239 0059582  75.2613 285.5194 14.81974848314059
UWE-3
1 39446U 13066AG  19264.98381489  .00000136  00000-0  24498-4 0  9995
2 39446  97.5846 264.9412 0071488 108.6866 252.2123 14.78421360313345
SPROUT
1 39770U 14029E   19265.83278760  .00000437  00000-0  54409-4 0  9996
2 39770  97.8884   8.5251 0009485 125.4925 234.7154 14.87426169289123
UNISAT 6
1 40012U 14033C   19265.66407646  .00000117  00000-0  24677-4 0  9999
2 40012  97.7439 128.0786 0058988 146.9952 213.4962 14.74007727282822
DUCHIFAT 1
1 40021U 14033M   19264.79576301  .00000329  00000-0  39401-4 0  9993
2 40021  97.9231 189.7033 0014371  95.2416 265.0442 14.90683217285711
QB50P1
1 40025U 14033R   19264.79130059  .00000224  00000-0  29828-4 0  9999
2 40025  97.9030 184.3119 0013815 104.5403 255.7347 14.88983033285479
CHUBUSAT 1
1 40300U 14070C   19265.78257961  .00000400  00000-0  20328-4 0  9990
2 40300  97.3187 337.5046 0021304  76.9435  70.9757 15.22172812270630
NUDT-PHONESAT
1 40900U 15049B   19265.70937628  .00001335  00000-0  59644-4 0  9991
2 40900  97.4381 274.1142 0011819 202.2064 269.8797 15.23047283222272
ZDPS 2A
1 40901U 15049C   19265.73809753  .00000682  00000-0  36991-4 0  9996
2 40901  97.4617 270.1853 0012042 224.4653 250.2178 15.17835976221801
ZDPS 2B
1 40902U 15049D   19265.77494390  .00000573  00000-0  31751-4 0  9996
2 40902  97.4573 267.6411 0012163 222.2325 257.5261 15.17686456221787
XW-2A
1 40903U 15049E   19265.76597078  .00001278  00000-0  31825-4 0  9998
2 40903  97.3284 309.0371 0013978 151.3021 344.4874 15.42099125225051
KAITUO 1A
1 40904U 15049F   19265.81472631  .00000560  00000-0  33108-4 0  9991
2 40904  97.4703 266.1940 0013128 232.1047 251.1851 15.15435103221557
OBJECT G
1 40905U 15049G   19265.83088056 -.00000051  00000-0  79988-6 0  9992
2 40905  97.4752 263.6608 0014283 227.5806 253.8125 15.14341910221429
XW-2C
1 40906U 15049H   19265.85469111  .00000527  00000-0  31051-4 0  9994
2 40906  97.4709 266.3576 0013449 222.4256 222.6911 15.15755039221566
XW-2D
1 40907U 15049J   19265.74879684  .00000288  00000-0  18463-4 0  9999
2 40907  97.4689 265.9333 0012798 219.9961 195.4873 15.15946933221569
LILACSAT 2
1 40908U 15049K   19265.77524626 -.00000091  00000-0 -14109-5 0  9994
2 40908  97.4827 264.6844 0014558 228.2001 256.4372 15.13847191221343
XW-2F
1 40910U 15049M   19265.82906313  .00000543  00000-0  30476-4 0  9994
2 40910  97.4653 268.1543 0013680 210.9380 270.9511 15.17420900221593
XW-2B
1 40911U 15049N   19265.86368237  .00000597  00000-0  34608-4 0  9996
2 40911  97.4715 266.7127 0012726 219.7661 259.8418 15.15878028221479
